Weather History for Big Piney, WY

Change the Weather History Date:

Friday, November 16, 2012

  Actual Average Record
Temperature  
Mean Temperature 24 °F 24 °F  
Max Temperature 37 °F 37 °F 59 °F (1999)
Min Temperature 10 °F 10 °F -27 °F (1978)
Degree Days  
Heating Degree Days 41 42  
Month to date heating degree days 542 599  
Since 1 July heating degree days 1672 2179  
Cooling Degree Days 0 0  
Month to date cooling degree days 0 0  
Year to date cooling degree days 67 35  
Moisture  
Dew Point 18 °F    
Average Humidity 74    
Maximum Humidity 92    
Minimum Humidity 56    
Precipitation  
Precipitation 0.00 in 0.01 in 0.15 in (1996)
Month to date precipitation 0.04 0.12  
Year to date precipitation 2.54 6.09  
Sea Level Pressure  
Sea Level Pressure 30.24 in    
Wind  
Wind Speed 2 mph (East)    
Max Wind Speed 9 mph    
Max Gust Speed 10 mph    
Visibility 10 miles    
Events      
T = Trace of Precipitation, MM = Missing Value Source: NWS Daily Summary

Daily Weather History Graph

Daily Weather History Graph

Search for Another Location

Airport:

Trip Planner

Search our weather history database for the weather conditions in past years. The results will help you decide how hot, cold, wet, or windy it might be!

Date:

Astronomy

Nov. 16, 2012 Rise Set
Actual Time 7:13 AM MST 4:56 PM MST
Civil Twilight 6:43 AM MST 5:26 PM MST
Nautical Twilight 6:09 AM MST 6:01 PM MST
Astronomical Twilight 5:35 AM MST 6:34 PM MST
Moon 10:12 AM MST (11/16) 7:59 PM MST (11/16)
Length of Visible Light 10h 43m
Length of Day
9h 42m
Waxing Crescent, 12% of the Moon is Illuminated
Nov 16
Waxing Crescent
Nov 20
First Quarter
Nov 28
Full
Dec 6
Last Quarter
Dec 13
New

Hourly Weather History & Observations

Time (MST) Temp. Windchill Dew Point Humidity Pressure Visibility Wind Dir Wind Speed Gust Speed Precip Events Conditions
12:53 AM 12.0 °F - 9.0 °F 88% 30.34 in 10.0 mi Calm Calm - N/A   Clear
1:53 AM 12.9 °F 5.2 °F 9.0 °F 84% 30.33 in 10.0 mi East 4.6 mph - N/A   Clear
2:53 AM 14.0 °F 8.2 °F 10.0 °F 84% 30.30 in 10.0 mi East 3.5 mph - N/A   Clear
3:53 AM 10.9 °F 4.7 °F 8.1 °F 88% 30.30 in 10.0 mi WNW 3.5 mph - N/A   Clear
4:53 AM 12.0 °F - 9.0 °F 88% 30.29 in 10.0 mi Calm Calm - N/A   Scattered Clouds
5:53 AM 16.0 °F - 12.0 °F 84% 30.31 in 10.0 mi Calm Calm - N/A   Partly Cloudy
6:53 AM 17.1 °F 11.7 °F 12.9 °F 84% 30.30 in 10.0 mi East 3.5 mph - N/A   Overcast
7:53 AM 18.0 °F - 15.1 °F 88% 30.32 in 10.0 mi Calm Calm - N/A   Overcast
8:53 AM 21.9 °F - 18.0 °F 85% 30.30 in 10.0 mi Calm Calm - N/A   Mostly Cloudy
9:53 AM 25.0 °F - 21.0 °F 85% 30.28 in 10.0 mi Calm Calm - N/A   Partly Cloudy
10:53 AM 28.9 °F 25.2 °F 21.9 °F 75% 30.27 in 10.0 mi ESE 3.5 mph - N/A   Mostly Cloudy
11:53 AM 32.0 °F 28.7 °F 21.9 °F 66% 30.22 in 10.0 mi ESE 3.5 mph - N/A   Overcast
12:53 PM 35.1 °F 32.2 °F 21.9 °F 59% 30.20 in 10.0 mi ESE 3.5 mph - N/A   Overcast
1:53 PM 36.0 °F 31.1 °F 21.9 °F 57% 30.18 in 10.0 mi SE 5.8 mph - N/A   Overcast
2:53 PM 36.0 °F 31.1 °F 23.0 °F 59% 30.16 in 10.0 mi East 5.8 mph - N/A   Overcast
3:53 PM 37.0 °F 33.3 °F 24.1 °F 59% 30.18 in 10.0 mi NNE 4.6 mph - N/A   Overcast
4:53 PM 34.0 °F 29.8 °F 23.0 °F 64% 30.19 in 10.0 mi NNE 4.6 mph - N/A   Overcast
5:53 PM 33.1 °F 28.7 °F 24.1 °F 70% 30.18 in 10.0 mi NE 4.6 mph - N/A   Overcast
6:53 PM 32.0 °F - 23.0 °F 69% 30.19 in 10.0 mi Calm Calm - N/A   Overcast
7:53 PM 30.9 °F - 24.1 °F 76% 30.19 in 10.0 mi Calm Calm - N/A   Overcast
8:53 PM 30.0 °F 26.5 °F 24.1 °F 79% 30.18 in 10.0 mi SSW 3.5 mph - N/A   Overcast
9:53 PM 27.0 °F 23.0 °F 21.9 °F 81% 30.19 in 10.0 mi NW 3.5 mph - N/A   Partly Cloudy
10:53 PM 23.0 °F - 18.0 °F 81% 30.20 in 10.0 mi Calm Calm - N/A   Mostly Cloudy
11:53 PM 24.1 °F - 19.9 °F 84% 30.19 in 10.0 mi Calm Calm - N/A   Clear